星链-3554 (STARLINK-3554 )

导读 | 豆包AI

STARLINK-3554是美国SpaceX公司星链星座的一员,于2022年3月3日发射。星链计划旨在构建全球卫星互联网星座,为全球提供高速互联网接入服务,尤其覆盖偏远地区。该卫星是星链网络不断扩张中的一环,加入低轨卫星星座,助力实现全球互联的目标,推动卫星通信技术发展。

基本信息
目录编号:
51872
目录名称:
STARLINK-3554
国际标识:
2022-022W
轨道中心:
EARTH
卫星名称:
星链-3554
卫星全名:
星链-3554 (STARLINK-3554 )
卫星状态:
在轨 (已飞行1472 天)
发射日期:
2022-03-03 UTC
国别 :
美国 (US)
星等 :
--
轨道信息
数据来源 国际轨道数据
星历时间: 2026-03-14T18:58:30+0800
10小时前
查看轨道信息
半长轴: 6917.856km
偏心率: 0.0001444
轨道倾角: 53.220°
近地点辐角 91.568°
升交点赤经 347.723°
平近点角 268.548°
近地点: 538.72km
远地点: 540.718km
周期: 95.437分钟
每日圈数: 15.08848
详细信息
固有亮度:
5
最大亮度:
2.5
卫星平台:
Starlink v1.5
覆盖范围:
全球
运营商:
太空探索技术公司
运营商所在国:
美国
制造商(研发单位):
太空探索技术公司
制造商所在国:
美国
使用方式:
暂无
卫星简介
星链(Starlink)计划是由太空探索技术公司(SpaceX)提出的一个巨型低轨卫星互联网星座项目,计划在2019年至2024年间在太空搭建由约1.2万颗卫星组成的“星链”网络,其中1584颗将部署在地球上空550千米处的近地轨道,并从2020年开始工作。该卫星仍在工作。
2D轨道图
3D轨道图
轨道高度分析图
轨道倾角分析图
轨道综合分析图
查看轨道综合分析图